| time (UTC) | temp F | wind direction | speed MPH | gust MPH | rain 1hr in | rain 24hr in | rain mn in | humidity % | barometer mb |
| 20260507051016 | 42 | 183 | 3.0 | 3.0 | 0.00 | 0.19 | 0.00 | 86 | 1014.9 |
| 20260507050021 | 42 | 177 | 2.0 | 2.0 | 0.00 | 0.20 | 0.00 | 86 | 1014.9 |
| 20260507045025 | 42 | 160 | 2.0 | 3.0 | 0.00 | 0.20 | 0.00 | 86 | 1014.9 |
| 20260507044029 | 42 | 170 | 2.0 | 3.0 | 0.00 | 0.21 | 0.00 | 85 | 1014.9 |
| 20260507043036 | 43 | 167 | 3.0 | 3.0 | 0.00 | 0.22 | 0.00 | 86 | 1014.9 |
| 20260507042020 | 43 | 165 | 2.0 | 4.0 | 0.00 | 0.22 | 0.00 | 85 | 1015.1 |
| 20260507041024 | 43 | 174 | 2.0 | 3.0 | 0.00 | 0.23 | 0.00 | 84 | 1015.2 |
| 20260507040029 | 42 | 156 | 2.0 | 3.0 | 0.00 | 0.24 | 0.00 | 85 | 1015.3 |
| 20260507035015 | 42 | 171 | 2.0 | 3.0 | 0.00 | 0.25 | 0.25 | 84 | 1015.3 |
| 20260507034019 | 42 | 147 | 2.0 | 3.0 | 0.00 | 0.27 | 0.25 | 85 | 1015.3 |
| 20260507033023 | 43 | 161 | 1.0 | 2.0 | 0.00 | 0.28 | 0.25 | 86 | 1015.3 |
| 20260507032027 | 43 | 0.0 | 0.0 | 0.00 | 0.30 | 0.25 | 86 | 1015.3 | |
| 20260507031032 | 43 | 173 | 1.0 | 2.0 | 0.00 | 0.32 | 0.25 | 86 | 1015.4 |
| 20260507030018 | 43 | 0.0 | 0.0 | 0.00 | 0.35 | 0.25 | 87 | 1015.3 | |
| 20260507025023 | 43 | 185 | 1.0 | 2.0 | 0.00 | 0.38 | 0.25 | 87 | 1015.1 |
| 20260507024047 | 43 | 151 | 1.0 | 2.0 | 0.00 | 0.41 | 0.25 | 88 | 1015.2 |
| 20260507023031 | 43 | 180 | 0.0 | 2.0 | 0.00 | 0.44 | 0.25 | 90 | 1015.3 |
| 20260507022037 | 43 | 0.0 | 0.0 | 0.00 | 0.47 | 0.25 | 88 | 1015.2 | |
| 20260507021047 | 43 | 0.0 | 0.0 | 0.00 | 0.48 | 0.25 | 87 | 1015.1 | |
| 20260507020026 | 43 | 0.0 | 0.0 | 0.00 | 0.50 | 0.25 | 87 | 1015.0 | |
| 20260507015030 | 44 | 0.0 | 0.0 | 0.00 | 0.50 | 0.25 | 85 | 1015.1 | |
| 20260507014016 | 44 | 0.0 | 0.0 | 0.00 | 0.50 | 0.25 | 86 | 1015.2 | |
| 20260507013020 | 44 | 194 | 1.0 | 2.0 | 0.00 | 0.51 | 0.25 | 86 | 1015.2 |
| 20260507012025 | 44 | 203 | 1.0 | 2.0 | 0.00 | 0.53 | 0.25 | 83 | 1015.1 |
| 20260507011023 | 44 | 0.0 | 0.0 | 0.00 | 0.54 | 0.25 | 80 | 1015.1 | |
| 20260507010016 | 45 | 0.0 | 0.0 | 0.00 | 0.55 | 0.25 | 79 | 1015.1 | |
| 20260507005020 | 45 | 0.0 | 0.0 | 0.00 | 0.56 | 0.25 | 77 | 1015.1 | |
| 20260507004038 | 45 | 0.0 | 0.0 | 0.00 | 0.56 | 0.25 | 76 | 1015.1 | |
| 20260507003016 | 45 | 0.0 | 0.0 | 0.00 | 0.56 | 0.25 | 73 | 1015.0 | |
| 20260507002014 | 45 | 23 | 0.0 | 2.0 | 0.00 | 0.58 | 0.25 | 72 | 1015.1 |
| 20260507001019 | 46 | 0.0 | 0.0 | 0.00 | 0.61 | 0.25 | 70 | 1014.9 | |
| 20260507000023 | 46 | 0.0 | 0.0 | 0.00 | 0.65 | 0.25 | 71 | 1014.6 | |
| 20260506235029 | 46 | 0.0 | 0.0 | 0.00 | 0.71 | 0.25 | 70 | 1014.6 | |
| 20260506234032 | 46 | 27 | 1.0 | 2.0 | 0.00 | 0.72 | 0.25 | 71 | 1014.7 |
| 20260506233019 | 46 | 16 | 1.0 | 2.0 | 0.00 | 0.74 | 0.25 | 67 | 1014.8 |
| 20260506232023 | 46 | 9 | 2.0 | 3.0 | 0.00 | 0.75 | 0.25 | 66 | 1014.6 |
| 20260506231027 | 46 | 8 | 2.0 | 4.0 | 0.00 | 0.82 | 0.25 | 65 | 1014.8 |
| 20260506230032 | 47 | 15 | 2.0 | 3.0 | 0.00 | 0.84 | 0.25 | 68 | 1014.5 |
| 20260506225018 | 47 | 7 | 3.0 | 4.0 | 0.00 | 0.86 | 0.25 | 66 | 1014.6 |
| 20260506224022 | 47 | 24 | 3.0 | 4.0 | 0.00 | 0.91 | 0.25 | 67 | 1014.6 |
| 20260506223026 | 48 | 23 | 2.0 | 3.0 | 0.00 | 0.91 | 0.25 | 65 | 1014.6 |
| 20260506222111 | 48 | 10 | 3.0 | 4.0 | 0.00 | 0.91 | 0.25 | 65 | 1014.4 |
| 20260506221057 | 48 | 16 | 2.0 | 4.0 | 0.00 | 0.93 | 0.25 | 66 | 1014.3 |
| 20260506220021 | 49 | 359 | 3.0 | 4.0 | 0.00 | 0.97 | 0.25 | 65 | 1014.3 |
| 20260506215025 | 49 | 359 | 2.0 | 4.0 | 0.00 | 1.02 | 0.25 | 66 | 1014.1 |
| 20260506214050 | 49 | 352 | 2.0 | 4.0 | 0.00 | 1.07 | 0.25 | 67 | 1014.0 |
| 20260506213016 | 49 | 20 | 4.0 | 6.0 | 0.00 | 1.07 | 0.25 | 66 | 1013.9 |
| 20260506212020 | 49 | 11 | 3.0 | 4.0 | 0.00 | 1.10 | 0.25 | 65 | 1013.9 |
| 20260506211045 | 49 | 27 | 3.0 | 5.0 | 0.00 | 1.14 | 0.25 | 62 | 1013.6 |
| 20260506210029 | 50 | 1 | 4.0 | 6.0 | 0.00 | 1.17 | 0.25 | 62 | 1013.6 |
| 20260506205015 | 50 | 18 | 4.0 | 6.0 | 0.00 | 1.20 | 0.25 | 62 | 1013.4 |
| 20260506204039 | 50 | 21 | 4.0 | 6.0 | 0.00 | 1.22 | 0.25 | 61 | 1013.4 |
| 20260506203024 | 51 | 10 | 3.0 | 6.0 | 0.00 | 1.24 | 0.25 | 60 | 1013.4 |
| 20260506202028 | 52 | 10 | 4.0 | 5.0 | 0.00 | 1.25 | 0.25 | 59 | 1013.4 |
| 20260506201032 | 53 | 337 | 3.0 | 6.0 | 0.00 | 1.26 | 0.25 | 59 | 1013.2 |
| 20260506200019 | 54 | 338 | 3.0 | 4.0 | 0.00 | 1.26 | 0.25 | 59 | 1013.4 |
| 20260506195023 | 54 | 9 | 4.0 | 6.0 | 0.00 | 1.26 | 0.25 | 58 | 1013.3 |
| 20260506194027 | 55 | 344 | 3.0 | 4.0 | 0.00 | 1.26 | 0.25 | 60 | 1013.2 |
| 20260506193046 | 55 | 238 | 4.0 | 5.0 | 0.00 | 1.26 | 0.25 | 59 | 1013.2 |
| 20260506192018 | 55 | 21 | 4.0 | 6.0 | 0.00 | 1.26 | 0.25 | 61 | 1013.4 |
| 20260506191022 | 55 | 10 | 4.0 | 5.0 | 0.00 | 1.26 | 0.25 | 62 | 1013.2 |
| 20260506190021 | 55 | 4 | 4.0 | 6.0 | 0.00 | 1.26 | 0.25 | 61 | 1013.1 |
| 20260506185019 | 56 | 318 | 4.0 | 5.0 | 0.00 | 1.26 | 0.25 | 61 | 1013.1 |
| 20260506184017 | 55 | 359 | 5.0 | 7.0 | 0.00 | 1.26 | 0.25 | 62 | 1013.2 |
| 20260506183015 | 56 | 21 | 5.0 | 7.0 | 0.00 | 1.26 | 0.25 | 64 | 1013.4 |
| 20260506182026 | 55 | 3 | 4.0 | 5.0 | 0.00 | 1.26 | 0.25 | 66 | 1013.0 |
| 20260506181029 | 54 | 21 | 3.0 | 4.0 | 0.00 | 1.26 | 0.25 | 68 | 1012.9 |
| 20260506180036 | 53 | 5 | 5.0 | 8.0 | 0.00 | 1.26 | 0.25 | 68 | 1013.1 |
| 20260506175019 | 54 | 10 | 4.0 | 6.0 | 0.00 | 1.26 | 0.25 | 70 | 1013.1 |
| 20260506174023 | 54 | 13 | 4.0 | 6.0 | 0.00 | 1.26 | 0.25 | 70 | 1013.0 |
| 20260506173028 | 54 | 14 | 4.0 | 6.0 | 0.00 | 1.26 | 0.25 | 72 | 1013.0 |
| 20260506172052 | 54 | 317 | 3.0 | 6.0 | 0.00 | 1.26 | 0.25 | 75 | 1012.9 |
| 20260506171018 | 53 | 23 | 4.0 | 5.0 | 0.00 | 1.26 | 0.25 | 75 | 1012.7 |
| 20260506170023 | 52 | 12 | 3.0 | 5.0 | 0.00 | 1.26 | 0.25 | 78 | 1012.9 |
| 20260506165027 | 52 | 281 | 4.0 | 6.0 | 0.00 | 1.26 | 0.25 | 79 | 1012.8 |
| 20260506164032 | 52 | 345 | 3.0 | 6.0 | 0.00 | 1.26 | 0.25 | 80 | 1012.7 |
| 20260506163026 | 53 | 35 | 4.0 | 6.0 | 0.00 | 1.26 | 0.25 | 78 | 1012.6 |
| 20260506162050 | 53 | 275 | 3.0 | 5.0 | 0.00 | 1.26 | 0.25 | 78 | 1012.3 |
| 20260506161037 | 53 | 256 | 4.0 | 5.0 | 0.00 | 1.26 | 0.25 | 77 | 1012.2 |
| 20260506160021 | 54 | 6 | 3.0 | 5.0 | 0.00 | 1.26 | 0.25 | 78 | 1012.1 |
| 20260506155045 | 53 | 38 | 3.0 | 4.0 | 0.00 | 1.26 | 0.25 | 81 | 1012.0 |
| 20260506154049 | 52 | 22 | 3.0 | 4.0 | 0.00 | 1.26 | 0.25 | 81 | 1011.9 |
| 20260506153016 | 52 | 252 | 3.0 | 5.0 | 0.00 | 1.26 | 0.25 | 80 | 1011.8 |
| 20260506152040 | 52 | 298 | 2.0 | 4.0 | 0.00 | 1.26 | 0.25 | 82 | 1011.6 |
| 20260506151024 | 51 | 2 | 3.0 | 4.0 | 0.00 | 1.26 | 0.25 | 84 | 1011.5 |
| 20260506150028 | 50 | 271 | 2.0 | 4.0 | 0.00 | 1.26 | 0.25 | 86 | 1011.4 |
| 20260506145035 | 49 | 301 | 1.0 | 3.0 | 0.00 | 1.26 | 0.25 | 88 | 1011.4 |
| 20260506144019 | 48 | 316 | 2.0 | 3.0 | 0.00 | 1.26 | 0.25 | 89 | 1011.4 |
| 20260506143023 | 48 | 344 | 2.0 | 4.0 | 0.00 | 1.26 | 0.25 | 90 | 1011.3 |
| 20260506142027 | 48 | 322 | 2.0 | 3.0 | 0.00 | 1.26 | 0.25 | 93 | 1011.4 |
| 20260506141045 | 48 | 352 | 2.0 | 4.0 | 0.00 | 1.26 | 0.25 | 94 | 1011.2 |
| 20260506140017 | 48 | 14 | 2.0 | 3.0 | 0.00 | 1.26 | 0.25 | 96 | 1011.1 |
| 20260506135022 | 48 | 321 | 1.0 | 4.0 | 0.00 | 1.26 | 0.25 | 96 | 1010.8 |
| 20260506134020 | 47 | 23 | 1.0 | 3.0 | 0.00 | 1.26 | 0.25 | 97 | 1010.6 |
| 20260506133018 | 47 | 1 | 2.0 | 3.0 | 0.00 | 1.26 | 0.25 | 98 | 1010.5 |
| 20260506132017 | 47 | 25 | 2.0 | 3.0 | 0.00 | 1.26 | 0.25 | 98 | 1010.4 |
| 20260506131015 | 47 | 16 | 2.0 | 4.0 | 0.00 | 1.26 | 0.25 | 98 | 1010.3 |
| 20260506130025 | 47 | 343 | 1.0 | 3.0 | 0.00 | 1.26 | 0.25 | 98 | 1010.5 |
| 20260506125029 | 47 | 16 | 1.0 | 3.0 | 0.00 | 1.26 | 0.25 | 98 | 1010.3 |
| 20260506124015 | 47 | 0.0 | 0.0 | 0.00 | 1.26 | 0.25 | 98 | 1010.2 | |
| 20260506123021 | 47 | 0.0 | 0.0 | 0.00 | 1.26 | 0.25 | 98 | 1010.1 | |
| 20260506122025 | 47 | 13 | 0.0 | 2.0 | 0.00 | 1.26 | 0.25 | 98 | 1010.3 |
| 20260506121029 | 47 | 2 | 1.0 | 2.0 | 0.00 | 1.26 | 0.25 | 98 | 1010.0 |
| 20260506120015 | 47 | 0.0 | 0.0 | 0.00 | 1.26 | 0.25 | 98 | 1009.8 | |
| 20260506115039 | 47 | 0.0 | 0.0 | 0.00 | 1.26 | 0.25 | 98 | 1009.6 | |
| 20260506114023 | 47 | 0.0 | 0.0 | 0.00 | 1.26 | 0.25 | 98 | 1009.4 | |
| 20260506113048 | 47 | 91 | 1.0 | 3.0 | 0.01 | 1.26 | 0.25 | 98 | 1009.3 |
| 20260506112032 | 46 | 9 | 2.0 | 3.0 | 0.01 | 1.26 | 0.25 | 98 | 1009.8 |
| 20260506111039 | 46 | 355 | 3.0 | 5.0 | 0.01 | 1.26 | 0.25 | 98 | 1009.3 |
| 20260506110023 | 46 | 15 | 2.0 | 3.0 | 0.02 | 1.26 | 0.25 | 98 | 1009.1 |
| 20260506105027 | 46 | 7 | 2.0 | 3.0 | 0.03 | 1.26 | 0.25 | 98 | 1008.8 |
| 20260506104051 | 46 | 5 | 2.0 | 3.0 | 0.03 | 1.26 | 0.25 | 98 | 1008.9 |
| 20260506103017 | 46 | 45 | 0.0 | 2.0 | 0.02 | 1.25 | 0.24 | 98 | 1009.1 |
| 20260506102022 | 46 | 0.0 | 0.0 | 0.03 | 1.25 | 0.24 | 98 | 1008.9 | |
| 20260506101026 | 46 | 270 | 0.0 | 1.0 | 0.03 | 1.25 | 0.24 | 98 | 1009.5 |
| 20260506100031 | 46 | 349 | 1.0 | 3.0 | 0.03 | 1.24 | 0.23 | 98 | 1009.3 |
| 20260506095037 | 46 | 0.0 | 0.0 | 0.03 | 1.23 | 0.22 | 98 | 1009.0 | |
| 20260506094021 | 46 | 0.0 | 0.0 | 0.04 | 1.23 | 0.22 | 98 | 1008.9 | |
| 20260506093025 | 46 | 0.0 | 0.0 | 0.05 | 1.23 | 0.22 | 98 | 1008.9 | |
| 20260506092051 | 46 | 0.0 | 0.0 | 0.06 | 1.22 | 0.21 | 98 | 1008.5 | |
| 20260506091016 | 46 | 0.0 | 0.0 | 0.07 | 1.22 | 0.21 | 98 | 1008.8 | |
| 20260506090022 | 46 | 0.0 | 1.0 | 0.06 | 1.21 | 0.20 | 98 | 1009.3 | |
| 20260506085025 | 46 | 356 | 1.0 | 2.0 | 0.06 | 1.20 | 0.19 | 98 | 1009.3 |
| 20260506084029 | 46 | 12 | 1.0 | 3.0 | 0.05 | 1.19 | 0.18 | 98 | 1009.2 |
| 20260506083015 | 46 | 10 | 2.0 | 3.0 | 0.05 | 1.18 | 0.17 | 98 | 1009.1 |
| 20260506082020 | 46 | 359 | 2.0 | 3.0 | 0.03 | 1.16 | 0.15 | 98 | 1009.3 |
| 20260506081024 | 46 | 12 | 2.0 | 3.0 | 0.02 | 1.15 | 0.14 | 98 | 1009.0 |
| 20260506073037 | 46 | 7 | 1.0 | 2.0 | 0.02 | 1.13 | 0.12 | 98 | 1008.9 |
| 20260506072016 | 46 | 331 | 1.0 | 2.0 | 0.02 | 1.13 | 0.12 | 98 | 1008.4 |
| 20260506071032 | 46 | 23 | 2.0 | 3.0 | 0.03 | 1.13 | 0.12 | 98 | 1008.5 |
| 20260506062017 | 47 | 0.0 | 0.0 | 0.04 | 1.11 | 0.10 | 98 | 1009.0 | |
| 20260506061022 | 47 | 0.0 | 0.0 | 0.03 | 1.10 | 0.09 | 98 | 1009.3 |